Hourly Data Report for September 28, 2017

All times are specified in Local Standard Time (LST). Add 1 hour to adjust for Daylight Saving Time where and when it is observed.

DOAKTOWN AUTO RCS
NEW BRUNSWICK

46°35'06.090" N
66°00'35.071" W
43.00 m
8101201
71038
ADN

Download Data

Hourly Data (September 2017)
Hourly Data Report for September 28, 2017
Temp Definition
°C
Dew Point Temp Definition
°C
Rel Hum Definition
%
Wind Dir Definition
10's deg

Wind Spd Definition
km/h
Visibility Definition
km
Stn Press Definition
kPa
Hmdx Definition


Wind Chill Definition


Weather Definition


TIME
00:00 17.8 16.7 93 0 1   99.81     LegendNANA
01:00 17.9 17.0 95 24 5   99.75     LegendNANA
02:00 17.6 16.7 95 23 3   99.77     LegendNANA
03:00 17.5 16.7 95 32 5   99.75     LegendNANA
04:00 17.1 15.7 92 25 9   99.76     LegendNANA
05:00 16.1 14.9 93 26 9   99.65     LegendNANA
06:00 16.1 14.9 93 26 9   99.56     LegendNANA
07:00 15.7 14.8 94 24 7   99.57     LegendNANA
08:00 14.8 12.2 84 28 7   99.63     LegendNANA
09:00 14.3 12.2 87 22 2   99.66     LegendNANA
10:00 15.2 12.0 82 23 3   99.65     LegendNANA
11:00 16.3 12.0 76 25 12   99.71     LegendNANA
12:00 17.0 10.6 66 27 17   99.73     LegendNANA
13:00 17.1 9.5 61 28 14   99.74     LegendNANA
14:00 17.2 8.0 55 28 18   99.75     LegendNANA
15:00 16.6 7.0 53 28 17   99.83     LegendNANA
16:00 15.0 5.7 54 29 16   99.90     LegendNANA
17:00 14.0 6.2 59 29 6   99.94     LegendNANA
18:00 13.2 5.2 59 28 5   99.98     LegendNANA
19:00 11.3 6.4 72 26 4   99.98     LegendNANA
20:00 9.4 5.6 77 26 6   100.02     LegendNANA
21:00 8.4 4.8 78 25 7   100.05     LegendNANA
22:00 6.8 4.8 87 26 8   100.08     LegendNANA
23:00 7.0 4.7 86 25 10   100.10     LegendNANA

Notes on Data Quality.

Legend

  • E = Estimated
  • M = Missing
  • NA = Not Available
  • ‡ = Partner data that is not subject to review by the National Climate Archives
Date modified: